THORAD AGENA D DEB, 4774

Orbit data source: Space-Track

THORAD AGENA D DEB, 4774 is space debris in SSO originally from a launch on Wed, 08 Apr 1970 UTC launched from the Air Force Western Test Range (AFWTR). Debris objects in space refer to the collection of defunct objects orbiting the Earth. Examples of debris include non-operational satellites, rocket bodies, and fragments generated from explosions, collisions, or faulty payload assembly.

Loading next visibility...
Identifier
4774, 1970-025DU
Orbit
SSO
Country
Flag of USUS
Related business
Manufacturer
Unknown
Mission
Spacecraft
Bus & Motor
Unknown
Mass
Unknown
Launch date (UTC)
1970-04-08 (56 years ago)
Launch vehicle
Unknown
Launch site
Air Force Western Test Range (AFWTR)
Object type
Payload
Rocket body
Debris
Shape & HBR
Unknown shape, 0.1 m
Radar Cross Section
Small (<0.1 m²)

Expand to show TLE details & history
Last TLE update: 12 hours ago

TLE from 12 hours ago
0 THORAD AGENA D DEB
1 04774U 70025DU  25287.28124234  .00002113  00000-0  20056-2 0  9998
2 04774  99.7245  49.3138 0042868  25.1934   4.8983 13.81723161756643
Epoch: 2025-10-14T06:44Z
TLE epoch observation values (Epoch: 2025-10-14T06:44:59.338Z)
Latitude
29.70767°
Longitude
-80.58726°
Altitude
930.074 km
Speed
7.405 km/s
True Right ascension
02h 54m 55s
True Declination
29° 33' 48"
Sunlit
Object was in full shadow at epoch
Visualization orbit readout
Latitude
Unknown
Longitude
Unknown
Altitude
Unknown
Speed
Unknown
Apparent Right ascension
Unknown
Apparent Declination
Unknown
Sunlit
N/A
Visualization observer readout
Local Sidereal Time
12:57:00
Azimuth
Unknown
Elevation
Unknown
Doppler factor
Unknown
Orbital elements
Apogee altitude
986.477 km
Perigee altitude
923.606 km
Semi-major axis
7,333.179 km
Eccentricity
0.00429
Inclination
99.7245°
RAAN
49.3138°
Arg. of periapsis
25.1934°
True anomaly
4.94047°
Mean anomaly
4.8983°
Eccentric anomaly
4.91936°
Mean motion
3.45625 °/min
Orbital period
104.16 mins
BSTAR
0.0020056

Documentation

Showing up to 5 results
|